Waukesha, WI

7:44 PM CDT on October 17, 2017 (GMT -0500)
Waukesha County

Weather History for KUES - August, 2013

Change the Weather History Date:

Saturday, August 17, 2013

  Actual Average Record
Temperature  
Mean Temperature 64 °F -  
Max Temperature 78 °F 81 °F 95 °F (1955)
Min Temperature 50 °F 60 °F 49 °F (1976)
Degree Days  
Heating Degree Days 1    
Growing Degree Days 14 (Base 50)    
Moisture  
Dew Point 53 °F    
Average Humidity 83    
Maximum Humidity 100    
Minimum Humidity 39    
Precipitation  
Precipitation 0.00 in - - ()
Sea Level Pressure  
Sea Level Pressure 30.23 in    
Wind  
Wind Speed 1 mph (SE)    
Max Wind Speed 10 mph    
Max Gust Speed -    
Visibility 9 miles    
Events Fog    
Averages and records for this station are not official NWS values.
T = Trace of Precipitation, MM = Missing Value Source: NWS Daily Summary

Daily Weather History Graph

Daily Weather History Graph

Search for Another Location

Airport or City:

Trip Planner

Search our weather history database for the weather conditions in past years. The results will help you decide how hot, cold, wet, or windy it might be!

Date:

Astronomy

Aug. 17, 2013 Rise Set
Actual Time 6:01 AM CDT 7:51 PM CDT
Civil Twilight 5:30 AM CDT 8:22 PM CDT
Nautical Twilight 4:53 AM CDT 8:59 PM CDT
Astronomical Twilight 4:13 AM CDT 9:39 PM CDT
Moon 5:09 PM CDT (8/17) 2:01 AM CDT (8/17)
Length of Visible Light 14h 51m
Length of Day
13h 50m
Waxing Gibbous, 84% of the Moon is Illuminated
Aug 17
Waxing Gibbous
Aug 20
Full
Aug 28
Last Quarter
Sep 5
New
Sep 12
First Quarter

Hourly Weather History & Observations

Time (CDT) Temp. Dew Point Humidity Pressure Visibility Wind Dir Wind Speed Gust Speed Precip Events Conditions
12:15 AM 55.4 °F 51.8 °F 88% 30.22 in 10.0 mi Calm Calm - N/A   Clear
12:35 AM 55.4 °F 53.6 °F 94% 30.23 in 10.0 mi Calm Calm - N/A   Clear
12:55 AM 53.6 °F 51.8 °F 94% 30.23 in 7.0 mi Calm Calm - N/A   Clear
1:15 AM 53.6 °F 53.6 °F 100% 30.23 in 10.0 mi Calm Calm - N/A   Clear
1:35 AM 53.6 °F 51.8 °F 94% 30.23 in 10.0 mi Calm Calm - N/A   Clear
1:55 AM 53.6 °F 51.8 °F 94% 30.23 in 10.0 mi Calm Calm - N/A   Clear
2:15 AM 51.8 °F 51.8 °F 100% 30.23 in 7.0 mi Calm Calm - N/A   Clear
2:35 AM 51.8 °F 50.0 °F 94% 30.23 in 7.0 mi Calm Calm - N/A   Clear
2:55 AM 51.8 °F 51.8 °F 100% 30.23 in 10.0 mi Calm Calm - N/A   Clear
3:15 AM 51.8 °F 50.0 °F 94% 30.23 in 10.0 mi Calm Calm - N/A   Clear
3:35 AM 51.8 °F 50.0 °F 94% 30.24 in 4.0 mi Calm Calm - N/A   Clear
3:55 AM 50.0 °F 48.2 °F 94% 30.24 in 0.2 mi Calm Calm - N/A Fog Fog
4:15 AM 50.0 °F 50.0 °F 100% 30.24 in 1.5 mi Calm Calm - N/A   Scattered Clouds
4:35 AM 51.8 °F 51.8 °F 100% 30.24 in 1.5 mi Calm Calm - N/A   Mist
4:55 AM 50.0 °F 50.0 °F 100% 30.24 in 5.0 mi Calm Calm - N/A   Clear
5:15 AM 50.0 °F 50.0 °F 100% 30.25 in 10.0 mi Calm Calm - N/A   Clear
5:35 AM 50.0 °F 50.0 °F 100% 30.25 in 7.0 mi Calm Calm - N/A   Clear
5:45 AM 51.8 °F 51.8 °F 100% 30.25 in 0.5 mi Calm Calm - N/A Fog Fog
6:20 AM 50.0 °F 50.0 °F 100% 30.26 in 10.0 mi Calm Calm - N/A   Clear
6:45 AM 51.8 °F 51.8 °F 100% 30.27 in 10.0 mi Calm Calm - N/A   Clear
7:45 AM 60.8 °F 57.2 °F 88% 30.28 in 10.0 mi Calm Calm - N/A   Clear
8:45 AM 66.2 °F 60.8 °F 83% 30.28 in 10.0 mi South 3.5 mph - N/A   Clear
9:45 AM 69.8 °F 55.4 °F 60% 30.28 in 10.0 mi Calm Calm - N/A   Clear
10:45 AM 73.4 °F 53.6 °F 50% 30.28 in 10.0 mi Calm Calm - N/A   Scattered Clouds
11:45 AM 73.4 °F 51.8 °F 47% 30.27 in 10.0 mi ESE 6.9 mph - N/A   Scattered Clouds
12:45 PM 75.2 °F 51.8 °F 44% 30.24 in 10.0 mi SE 6.9 mph - N/A   Scattered Clouds
1:45 PM 78.8 °F 51.8 °F 39% 30.23 in 10.0 mi SE 9.2 mph - N/A   Scattered Clouds
3:45 PM 75.2 °F 53.6 °F 47% 30.22 in 10.0 mi SSE 10.4 mph - N/A   Scattered Clouds
4:45 PM 75.2 °F 53.6 °F 47% 30.21 in 10.0 mi SSE 5.8 mph - N/A   Scattered Clouds
6:45 PM 73.4 °F 53.6 °F 50% 30.21 in 10.0 mi ESE 9.2 mph - N/A   Clear
7:45 PM 69.8 °F 55.4 °F 60% 30.21 in 10.0 mi SE 5.8 mph - N/A   Clear
8:45 PM 64.4 °F 55.4 °F 73% 30.21 in 10.0 mi SE 3.5 mph - N/A   Clear
9:15 PM 64.4 °F 55.4 °F 73% 30.21 in 10.0 mi Calm Calm - N/A   Clear
9:35 PM 62.6 °F 55.4 °F 77% 30.21 in 10.0 mi Calm Calm - N/A   Clear
9:55 PM 59.0 °F 55.4 °F 88% 30.21 in 10.0 mi SSE 3.5 mph - N/A   Clear
10:15 PM 59.0 °F 53.6 °F 82% 30.21 in 10.0 mi Calm Calm - N/A   Clear
10:35 PM 59.0 °F 53.6 °F 82% 30.20 in 10.0 mi Calm Calm - N/A   Clear
10:55 PM 57.2 °F 53.6 °F 88% 30.21 in 10.0 mi Calm Calm - N/A   Clear
11:15 PM 55.4 °F 53.6 °F 94% 30.21 in 10.0 mi Calm Calm - N/A   Clear
11:35 PM 53.6 °F 51.8 °F 94% 30.20 in 10.0 mi Calm Calm - N/A   Clear
11:55 PM 55.4 °F 51.8 °F 88% 30.21 in 10.0 mi Calm Calm - N/A   Clear